Location: Olsztyn
(53.7767°N, 20.4765°E)
Time: 19:05:25
(UTC+02:00)

Envisat - Pass Details

Date: 03 March 2024
Orbit: 762 x 764 km, 98.3° (Epoch: 20 April)

Event Time Altitude Azimuth Distance (km) Brightness Sun altitude
Rises 05:02:12 0° 8° (N) 3,246 6.4 -12.4°
Reaches altitude 10° 05:05:04 10° 351° (N) 2,315 5.5 -12.0°
Maximum altitude 05:08:38 20° 307° (NW) 1,740 4.4 -11.5°
Enters shadow 05:10:56 15° 274° (W) 1,997 4.5 -11.1°
